POLYITAN-1

Last updated on Tue Oct 21 2025 00:03:53 GMT+0000 (Coordinated Universal Time)

1 40042U 14033AJ 25293.57589564 .00026512 00000+0 11266-2 0 9994 2 40042 98.1092 293.8296 0006286 259.8203 100.2323 15.23015440616998
UTC large
Height (km)
Speed (km/s)
/
Latitude / Longitude
Inclination (degrees)
Orbital Period (minutes)
Azimuth
Elevation
Range (km)
Doppler Factor

Next 0 passes for location: London (51.5072 / 0.1276)

Sorry there are no passes over London.